Satellite: NOAA-19
Catalog number: 33591
Epoch time:      12298.73559026
Element set:    0554
Inclination:      098.8758 deg
RA of node:       236.9831 deg
Eccentricity:    0.0014456
Arg of perigee:   018.3875 deg
Mean anomaly:     341.7805 deg
Mean motion:   14.11407639 rev/day
Decay rate:       5.12e-06 rev/day^2
Epoch rev:           19128
Checksum:              336

/EX
SB KEPS @ AMSAT  $ORB12299.M
Orbital Elements  12299.MISC

HR AMSAT ORBITAL ELEMENTS FOR MANNED AND MISCELLANEOUS SATELLITES
FROM WA5QGD FORT WORTH,TX October 25, 2012
BID: ORB12299.M
TO ALL RADIO AMATEURS BT

Satellite: HUBBLE
Catalog number: 20580
Epoch time:      12299.23142079
Element set:      95
Inclination:      028.4704 deg
RA of node:       012.2754 deg
Eccentricity:    0.0003274
Arg of perigee:   010.9575 deg
Mean anomaly:     349.1256 deg
Mean motion:   15.02951230 rev/day
Decay rate:      3.436e-05 rev/day^2
Epoch rev:            3430
Checksum:              261

Satellite: ISS
Catalog number: 25544
Epoch time:      12299.90998762
Element set:     527
Inclination:      051.6474 deg
RA of node:       192.0129 deg
Eccentricity:    0.0016608
Arg of perigee:   208.9043 deg
Mean anomaly:     237.0261 deg
Mean motion:   15.51079814 rev/day
Decay rate:     2.3832e-04 rev/day^2
Epoch rev:           79832
Checksum:              321

Satellite: CO-58
Catalog number: 28895
Epoch time:      12299.64510482
Element set:     311
Inclination:      097.8934 deg
RA of node:       160.0577 deg
Eccentricity:    0.0018830
Arg of perigee:   099.3717 deg
Mean anomaly:     260.9631 deg
Mean motion:   14.60810595 rev/day
Decay rate:      1.240e-05 rev/day^2
Epoch rev:           37270
Checksum:              326

Satellite: FALCON
Catalog number: 30776
Epoch time:      12298.95388384
Element set:    0468
Inclination:      035.4315 deg
RA of node:       203.6666 deg
Eccentricity:    0.0002388
Arg of perigee:   039.8042 deg
Mean anomaly:     320.2875 deg
Mean motion:   15.08617340 rev/day
Decay rate:      7.912e-05 rev/day^2
Epoch rev:           30985
Checksum:              322

Satellite: MAST
Catalog number: 31126
Epoch time:      12299.88519657
Element set:     590
Inclination:      097.8750 deg
RA of node:       303.3570 deg
Eccentricity:    0.0094648
Arg of perigee:   063.5365 deg
Mean anomaly:     297.5505 deg
Mean motion:   14.54306444 rev/day
Decay rate:      1.123e-05 rev/day^2
Epoch rev:           29326
Checksum:              320

Satellite: CAPE1
Catalog number: 31130
Epoch time:      12298.72049767
Element set:     600
Inclination:      097.8875 deg
RA of node:       298.5885 deg
Eccentricity:    0.0102531
Arg of perigee:   080.9751 deg
Mean anomaly:     280.3028 deg
Mean motion:   14.53127363 rev/day
Decay rate:      1.289e-05 rev/day^2
Epoch rev:           29258
Checksum:              322

Satellite: COMPASS
Catalog number: 32787
Epoch time:      12298.77716772
Element set:    0448
Inclination:      097.7861 deg
RA of node:       357.1777 deg
Eccentricity:    0.0015169
Arg of perigee:   001.4841 deg
Mean anomaly:     358.6401 deg
Mean motion:   14.84534236 rev/day
Decay rate:      3.235e-05 rev/day^2
Epoch rev:           24303
Checksum:              324

Satellite: AAUSAT2
Catalog number: 32788
Epoch time:      12299.86255009
Element set:     437
Inclination:      097.7863 deg
RA of node:       358.6962 deg
Eccentricity:    0.0013895
Arg of perigee:   000.4477 deg
Mean anomaly:     359.6723 deg
Mean motion:   14.84914262 rev/day
Decay rate:      4.226e-05 rev/day^2
Epoch rev:           24322
Checksum:              340

Satellite: DO-64
Catalog number: 32789
Epoch time:      12298.82219675
Element set:    0456
Inclination:      097.7997 deg
RA of node:       000.2325 deg
Eccentricity:    0.0014181
Arg of perigee:   356.7258 deg
Mean anomaly:     003.3853 deg
Mean motion:   14.86776910 rev/day
Decay rate:      7.073e-05 rev/day^2
Epoch rev:           24313
Checksum:              337

Satellite: CO-66
Catalog number: 32791
Epoch time:      12299.76546197
Element set:     435
Inclination:      097.7850 deg
RA of node:       357.7707 deg
Eccentricity:    0.0015120
Arg of perigee:   359.3202 deg
Mean anomaly:     000.7943 deg
Mean motion:   14.83861170 rev/day
Decay rate:      2.732e-05 rev/day^2
Epoch rev:           24310
Checksum:              314

Satellite: RS-30
Catalog number: 32953
Epoch time:      12299.76097043
Element set:     264
Inclination:      082.5045 deg
RA of node:       213.9362 deg
Eccentricity:    0.0020040
Arg of perigee:   025.7032 deg
Mean anomaly:     334.5047 deg
Mean motion:   12.43028919 rev/day
Decay rate:        1.0e-07 rev/day^2
Epoch rev:           20078
Checksum:              265

Satellite: PHARMSAT
Catalog number: 35002
Epoch time:      12226.86484473
Element set:      78
Inclination:      040.4341 deg
RA of node:       050.6671 deg
Eccentricity:    0.0012079
Arg of perigee:   300.9773 deg
Mean anomaly:     059.0492 deg
Mean motion:   16.39309245 rev/day
Decay rate:   7.728342e-02 rev/day^2
Epoch rev:           18355
Checksum:              302

Satellite: METEOR-M
Catalog number: 35865
Epoch time:      12299.75559991
Element set:     902
Inclination:      098.6383 deg
RA of node:       351.5241 deg
Eccentricity:    0.0003298
Arg of perigee:   043.5461 deg
Mean anomaly:     316.5975 deg
Mean motion:   14.21872540 rev/day
Decay rate:        1.2e-07 rev/day^2
Epoch rev:           16115
Checksum:              312

